Tracking 25723 objects as of 27-Jun-2022
HD Live streaming from Space Station
objects crossing your sky now

CZ-4B DEB

Track CZ-4B DEB now!
10-day predictions


NORAD ID: 29536
Int'l Code: 2006-015C
Perigee: 603.8 km
Apogee: 826.2 km
Inclination: 97.7 °
Period: 98.9 minutes
Semi major axis: 7085 km
RCS: 0.0177 m2 (small)
Launch date: April 26, 2006
Source: People's Republic of China (PRC)
Launch site: Taiyaun Space Center, China (TSC)

Note: This is SATELLITE DEBRIS
aabbcc
Your satellite tracking list
Your tracking list is empty




NASA's NSSDC Master Catalog

Two Line Element Set (TLE):
1 29536U 06015C   22177.74109100  .00001771  00000-0  35475-3 0  9991
2 29536  97.7311 177.8410 0156915 298.7709  59.7806 14.55463621850669
Source of the keplerian elements: AFSPC